Flag for Japan Weather past 2 weeks in Matsuyama, Japan

Now
54 °F

Cool.


Feels Like: 54 °F
Forecast: 54 / 75 °F
Wind: 2 mph from Northwest

Location: Matsuyama


UV Index: 5 (Moderate)

Visibility: N/A


Pressure: 30.12 "Hg

Humidity: 79%

Dew point: 47 °F

Location of MatsuyamaLocation

Historic Weather in Matsuyama

°F

Matsuyama temperature yesterday

Maximum temperature yesterday: 68 °F (at 2:00 PM)
Minimum temperature yesterday: 52 °F (at 4:00 AM)
Average temperature yesterday: 61 °F

Past Weeks' High & Low Weather Summary

 TemperatureHumidityPressure
High72 °F (Apr 17, 12:00 PM)95% (Apr 13, 8:00 AM)30.20 "Hg (Apr 13, 8:00 AM)
Low37 °F (Apr 7, 6:00 AM)17% (Apr 14, 1:00 PM)29.86 "Hg (Apr 18, 9:00 AM)
Average56 °F61%30.04 "Hg
* Reported Apr 5 11:00 AM — Apr 20 11:00 AM, Matsuyama, Weather by CustomWeather, © 2014

Note: Actual official high and low records may vary slightly from our data, if they occured in-between our weather recording intervals... More about our weather records

Advertising

Historic Weather Conditions — Data for Previous 24 hours

 ConditionsComfort  
Time TempWeatherWind HumidityBarometerVisibility
11:00 AM
Apr 20
54 °FCool.2 mph79%30.12 "HgN/A
10:00 AM54 °FCool.2 mph82%30.12 "HgN/A
9:00 AM52 °FLight rain. Overcast.1 mph75%30.14 "Hg6 mi
8:00 AM53 °FCool.2 mph71%30.11 "HgN/A
7:00 AM53 °FCool.5 mph66%30.07 "HgN/A
6:00 AM53 °FLight rain. Overcast.2 mph67%30.06 "Hg9 mi
5:00 AM54 °FCool.3 mph65%30.07 "HgN/A
4:00 AM54 °FCool.3 mph62%30.05 "HgN/A
3:00 AM55 °FOvercast.3 mph59%30.07 "Hg9 mi
2:00 AM56 °FRefreshingly cool.1 mph55%30.07 "HgN/A
1:00 AM56 °FRefreshingly cool.3 mph53%30.07 "HgN/A
12:00 AM57 °FRefreshingly cool.3 mph51%30.09 "HgN/A
11:00 PM
Apr 19
57 °FRefreshingly cool.5 mph48%30.09 "HgN/A
10:00 PM58 °FRefreshingly cool.5 mph41%30.08 "HgN/A
9:00 PM60 °FOvercast.8 mph44%30.05 "Hg9 mi
8:00 PM61 °FRefreshingly cool.3 mph49%30.04 "HgN/A
7:00 PM64 °FMild.3 mph40%30.03 "HgN/A
6:00 PM65 °FOvercast.6 mph33%30.01 "Hg9 mi
5:00 PM66 °FMild.2 mph32%30.03 "HgN/A
4:00 PM67 °FMild.7 mph30%30.01 "HgN/A
3:00 PM68 °FOvercast.9 mph29%30.02 "Hg6 mi
2:00 PM68 °FMild.5 mph41%30.01 "HgN/A
1:00 PM67 °FMild.6 mph47%30.02 "HgN/A
12:00 PM66 °FOvercast.6 mph49%30.03 "Hg5 mi
Weather by CustomWeather, © 2014

See weather overview